Wind_Speed
25 26 26 27 28 29 30 31 32 33 33 33 33 33 33 33 33 33 33 32 32 32 33 33 33 33 33 33 32 32 32 32 32 32 32 32 33 33 34 35 35 36
26 27 28 29 30 31 32 33 34 34 34 35 35 34 34 34 34 34 34 35 34 34 34 34 35 35 35 34 34 33 33 33 33 33 33 33 33 34 34 35 36 37
28 28 29 30 31 32 33 34 35 36 36 36 36 36 35 35 35 36 37 37 37 37 36 36 36 36 36 35 35 34 34 34 34 34 34 34 34 34 35 36 36 37
29 29 30 32 32 33 34 35 37 37 37 38 37 37 37 37 38 38 38 39 39 38 38 38 37 37 37 36 36 35 35 35 35 35 35 35 35 35 36 37 37 38
30 30 31 32 33 34 35 36 38 38 38 39 39 39 39 40 40 40 40 40 40 39 39 39 38 38 37 37 37 36 36 36 36 36 36 36 36 36 37 37 38 38
31 32 32 33 34 35 36 38 39 39 39 39 40 40 41 42 42 41 40 40 40 40 40 39 39 38 38 38 37 37 37 37 37 37 37 37 37 37 37 38 39 39
31 32 33 34 35 36 37 38 39 39 40 40 40 41 42 42 42 41 41 41 40 40 40 39 39 39 38 38 38 38 37 37 37 37 37 38 38 39 39 40 41 41
31 32 33 34 35 36 37 38 39 40 40 41 41 42 43 42 41 41 42 42 41 40 39 39 38 38 38 38 38 38 37 37 37 38 38 39 39 40 40 41 42 43
31 32 33 34 35 36 37 38 39 40 41 42 42 42 42 41 41 42 42 41 41 40 39 38 38 38 37 37 37 38 38 38 38 39 39 40 40 41 41 42 43 43
31 32 33 34 35 36 37 39 40 41 42 42 42 41 41 41 41 42 42 41 40 39 39 38 38 37 37 37 37 37 38 38 38 38 39 39 40 41 41 42 43 43
31 32 33 34 35 36 38 39 40 41 41 40 40 41 41 41 41 41 41 40 39 39 38 37 37 37 36 36 36 37 37 37 38 38 38 39 40 41 42 43 44 44
31 32 33 35 36 37 38 39 40 40 39 39 40 41 40 41 41 41 40 39 38 37 37 36 35 35 35 35 36 36 37 38 39 40 40 41 42 43 44 45 46 47
32 33 34 36 36 37 38 38 38 38 39 40 40 40 40 41 41 39 38 37 37 36 35 34 34 35 35 36 37 38 39 40 41 42 43 44 45 46 47 48 49 49
33 34 35 36 36 36 37 37 37 38 39 40 40 40 41 40 39 38 37 36 35 34 34 34 35 36 37 38 39 40 41 42 43 44 45 45 46 47 48 48 49 50
34 35 35 35 35 36 36 37 38 39 39 40 40 40 40 38 37 36 36 35 34 35 35 36 37 38 39 40 41 42 43 44 45 45 46 46 46 47 47 48 48 49
35 35 35 35 35 36 36 37 38 38 39 39 39 39 37 36 36 35 35 35 35 35 36 38 39 40 41 42 43 43 44 45 45 46 46 46 47 47 47 48 48 49
33 34 34 34 35 35 35 36 37 37 38 38 38 36 35 35 35 35 35 35 36 37 38 39 40 41 42 43 43 44 45 45 46 46 47 47 48 48 48 49 49 50
31 31 32 32 33 33 34 35 36 37 37 36 35 35 35 35 35 35 35 36 37 38 38 39 40 41 42 43 44 45 46 46 47 47 48 48 49 49 50 50 50 51
28 29 30 31 32 33 34 34 35 35 35 34 34 34 35 35 35 35 36 36 37 38 38 39 40 41 42 43 45 46 47 47 48 49 49 50 50 50 50 51 51 51
27 29 30 31 32 32 33 33 34 34 34 34 34 34 34 34 35 35 36 36 37 37 38 39 40 41 42 44 45 46 47 48 48 49 50 50 50 51 51 51 52 53
28 29 29 30 30 31 32 33 33 33 33 34 34 34 34 34 35 35 35 36 37 37 38 40 41 42 43 44 45 46 47 47 48 49 50 50 51 52 52 53 53 54
28 28 29 29 30 31 32 32 32 32 33 33 33 33 34 34 34 35 35 36 37 38 39 40 41 42 43 44 45 45 46 47 48 49 50 51 52 53 53 54 55 55
28 28 29 29 30 30 31 31 31 32 32 32 32 33 33 33 33 34 35 36 37 38 40 41 42 43 43 44 44 45 46 47 48 50 51 52 52 53 54 54 55 56
27 28 28 29 29 30 30 30 30 31 31 31 32 32 32 32 33 34 35 36 37 39 40 41 42 42 43 44 44 45 46 48 49 50 51 52 52 53 53 54 55 57
27 28 28 29 29 30 30 30 30 30 30 31 31 31 31 32 33 34 35 36 38 39 40 40 41 42 43 44 45 46 47 49 50 51 51 51 52 52 53 54 55 57
27 28 28 28 29 28 28 29 29 29 29 30 30 31 31 32 33 34 36 37 38 38 39 39 40 42 43 44 46 47 49 50 50 50 51 51 52 53 53 55 56 58
Wind_Direction
281 283 285 286 287 288 290 291 292 293 294 295 297 298 298 299 299 299 300 299 299 298 296 295 294 293 292 291 291 290 289 289 288 289 289 290 291 292 293 293 293 294
282 283 285 285 286 288 290 291 292 293 294 296 297 298 299 299 300 300 301 301 300 299 298 297 295 294 293 292 292 291 290 290 290 289 290 290 291 291 292 293 293 293
282 283 284 285 285 287 289 290 291 293 295 296 298 299 300 301 302 303 303 303 302 301 300 299 297 295 294 293 291 291 290 290 290 290 290 290 290 291 292 292 293 293
281 282 283 283 284 286 288 289 290 292 294 296 298 300 301 303 304 305 304 304 303 302 301 299 298 296 295 293 292 291 290 290 290 290 290 290 290 291 292 292 293 293
279 280 281 282 283 285 286 287 289 291 293 296 298 300 302 303 304 305 304 303 303 302 301 299 298 296 295 293 292 291 291 291 291 290 291 291 291 292 292 293 293 293
277 278 279 280 282 283 283 285 287 289 292 294 297 299 301 302 303 304 303 302 302 302 301 300 298 297 295 294 293 292 291 291 291 291 291 292 292 292 292 293 293 292
276 277 278 278 279 279 281 283 285 288 291 293 295 297 300 301 302 303 302 302 302 302 301 300 299 298 297 296 294 293 293 292 292 292 292 292 292 292 292 292 291 291
275 276 276 276 276 277 279 281 285 288 290 293 295 297 299 301 301 302 303 303 304 303 302 301 300 298 297 296 295 295 294 293 293 293 293 292 292 292 292 291 290 289
274 274 274 274 274 276 278 282 285 288 290 293 295 298 299 301 301 302 304 304 305 304 303 302 300 299 298 297 296 295 295 294 294 293 293 293 292 292 292 291 290 290
273 273 272 273 274 276 279 283 285 288 291 294 297 299 300 301 302 304 305 305 304 304 303 302 301 300 299 298 297 296 296 295 295 294 294 294 294 294 293 292 292 291
273 273 272 273 275 278 281 283 286 289 292 296 299 300 301 303 304 305 305 304 303 303 302 302 301 300 299 298 298 297 297 296 296 295 295 294 294 293 292 291 291 290
273 273 273 275 277 279 282 285 287 290 294 298 300 301 302 304 304 304 303 303 303 302 302 301 300 300 299 298 298 297 297 297 296 296 295 294 294 293 292 291 290 289
273 272 273 275 278 281 284 287 289 292 296 299 300 302 303 304 303 302 302 302 302 302 301 300 300 300 299 299 298 298 298 297 297 297 296 296 295 294 293 292 291 290
271 271 273 276 280 283 286 288 292 295 298 300 301 302 303 302 302 301 302 302 302 301 301 300 300 300 300 300 300 300 299 299 299 298 298 297 296 296 295 294 293 292
270 272 275 279 282 285 288 291 294 297 299 300 301 302 301 301 301 302 302 302 302 301 301 301 302 302 302 302 302 301 301 301 301 300 299 299 298 297 296 295 294 293
273 276 278 282 285 288 290 293 295 297 299 299 300 300 300 300 301 302 302 302 302 303 303 304 304 304 304 304 304 304 303 303 302 302 301 300 299 298 297 297 295 294
276 278 281 284 287 289 291 293 295 297 298 298 298 299 299 301 302 302 303 303 304 304 305 305 306 306 306 306 305 305 305 304 304 303 303 302 301 300 299 299 297 296
279 281 283 286 288 290 292 294 295 296 297 297 298 299 300 302 303 303 303 304 305 306 306 307 307 307 307 307 307 306 306 306 306 305 305 304 304 303 302 301 299 298
281 283 285 287 289 291 293 294 295 296 296 297 298 300 302 302 303 303 304 305 306 307 307 307 308 308 308 308 308 308 308 308 308 308 308 307 306 305 304 303 301 300
283 285 286 289 291 292 293 294 295 296 297 298 300 301 302 303 303 305 306 306 307 308 308 309 309 310 310 310 311 311 311 311 311 311 311 310 309 308 307 306 304 303
286 287 289 290 292 292 294 295 296 297 298 300 301 302 302 304 305 306 307 308 308 309 310 310 311 312 312 313 314 314 314 315 315 314 314 313 313 311 310 309 307 306
289 290 291 292 293 293 294 296 297 298 299 300 301 302 303 304 305 307 308 309 310 311 311 312 313 314 314 315 316 317 317 317 317 317 316 316 315 314 313 312 311 309
291 291 292 292 293 295 296 297 298 298 299 300 301 302 304 305 307 309 310 311 312 312 313 314 315 316 316 317 318 318 319 319 319 319 318 318 317 317 316 315 314 313
290 291 292 294 295 296 296 297 298 298 299 301 302 304 305 307 309 310 311 312 313 314 316 317 317 318 318 319 320 320 321 321 321 321 320 320 320 319 319 318 317 316
290 292 293 295 296 296 296 296 298 299 301 303 304 306 307 309 310 311 312 314 316 317 318 319 319 320 321 321 322 322 323 323 323 323 322 322 322 322 321 321 320 319
292 293 295 296 295 295 296 297 300 302 304 305 306 307 308 310 312 313 315 317 318 319 320 321 322 322 323 323 324 325 325 325 325 325 325 325 325 324 324 323 323 322
Height
5813 5813 5812 5812 5811 5811 5810 5809 5808 5807 5807 5806 5805 5804 5803 5802 5800 5799 5798 5796 5795 5794 5792 5791 5789 5788 5786 5785 5783 5782 5781 5779 5778 5777 5775 5774 5773 5772 5771 5770 5768 5767
5810 5810 5809 5809 5808 5808 5807 5806 5805 5804 5803 5803 5802 5800 5799 5798 5797 5795 5794 5793 5791 5790 5789 5787 5786 5784 5782 5781 5779 5778 5776 5775 5774 5773 5771 5770 5769 5768 5767 5765 5764 5763
5807 5807 5806 5806 5805 5804 5804 5803 5801 5801 5800 5799 5798 5797 5795 5794 5793 5791 5790 5788 5787 5785 5784 5783 5781 5780 5778 5777 5775 5774 5772 5771 5770 5768 5767 5766 5764 5763 5762 5761 5760 5758
5804 5803 5803 5802 5801 5801 5800 5799 5798 5797 5796 5795 5794 5792 5791 5790 5788 5787 5785 5784 5782 5781 5779 5778 5776 5775 5774 5772 5771 5769 5768 5766 5765 5764 5762 5761 5760 5758 5757 5756 5755 5754
5800 5800 5799 5798 5798 5797 5796 5795 5794 5793 5793 5791 5790 5789 5787 5786 5784 5783 5781 5780 5778 5776 5775 5773 5772 5770 5769 5767 5766 5765 5763 5762 5760 5759 5758 5756 5755 5753 5752 5751 5750 5749
5796 5796 5795 5795 5795 5794 5793 5792 5791 5790 5789 5788 5786 5785 5783 5782 5780 5779 5777 5775 5774 5772 5770 5769 5767 5765 5764 5762 5761 5760 5758 5757 5755 5754 5752 5751 5749 5748 5747 5745 5744 5743
5793 5793 5792 5792 5791 5791 5790 5788 5787 5786 5785 5784 5783 5781 5779 5778 5776 5774 5773 5771 5769 5767 5766 5764 5762 5760 5759 5757 5756 5754 5753 5751 5750 5748 5747 5745 5744 5742 5741 5739 5738 5737
5789 5789 5789 5788 5788 5787 5786 5785 5784 5783 5781 5780 5779 5777 5775 5774 5772 5770 5769 5767 5765 5763 5761 5759 5757 5756 5754 5752 5751 5749 5748 5746 5745 5743 5741 5740 5738 5737 5735 5733 5732 5731
5786 5785 5785 5784 5784 5783 5782 5781 5780 5779 5778 5776 5775 5773 5771 5770 5768 5766 5764 5762 5760 5758 5756 5754 5752 5751 5749 5747 5746 5744 5742 5741 5739 5737 5736 5734 5732 5731 5729 5727 5726 5724
5782 5782 5781 5780 5780 5779 5778 5777 5776 5775 5774 5772 5770 5769 5767 5765 5763 5762 5759 5757 5755 5753 5751 5749 5747 5746 5744 5742 5741 5739 5737 5735 5734 5732 5730 5729 5727 5725 5723 5721 5719 5718
5778 5778 5777 5777 5776 5775 5774 5773 5772 5771 5769 5768 5766 5765 5763 5761 5759 5757 5755 5753 5751 5749 5746 5745 5743 5741 5739 5737 5736 5734 5732 5730 5729 5727 5725 5723 5721 5719 5717 5715 5713 5712
5774 5774 5774 5773 5772 5771 5771 5769 5768 5767 5765 5764 5762 5761 5759 5757 5755 5753 5751 5749 5746 5744 5742 5740 5738 5737 5735 5733 5731 5729 5728 5726 5724 5722 5719 5717 5715 5713 5711 5709 5707 5705
5770 5770 5769 5769 5768 5768 5767 5765 5764 5763 5761 5760 5758 5757 5755 5753 5751 5749 5747 5744 5742 5740 5738 5736 5734 5732 5730 5728 5727 5725 5722 5720 5718 5716 5713 5711 5709 5706 5704 5701 5699 5697
5766 5766 5765 5765 5764 5764 5762 5761 5760 5759 5757 5756 5754 5752 5750 5749 5747 5744 5742 5740 5738 5736 5733 5732 5730 5728 5726 5724 5721 5719 5717 5714 5712 5710 5707 5705 5702 5700 5697 5694 5692 5689
5762 5762 5761 5761 5761 5760 5759 5757 5756 5755 5753 5752 5750 5748 5746 5744 5742 5740 5738 5736 5733 5731 5729 5727 5725 5723 5721 5718 5716 5713 5711 5708 5706 5703 5701 5698 5696 5693 5690 5688 5685 5682
5758 5758 5758 5757 5757 5756 5754 5753 5752 5751 5749 5747 5746 5744 5742 5740 5738 5736 5734 5731 5729 5727 5724 5722 5719 5717 5714 5712 5709 5707 5704 5702 5699 5697 5694 5692 5689 5686 5684 5681 5678 5675
5755 5754 5754 5753 5753 5751 5750 5749 5748 5747 5745 5743 5742 5740 5738 5736 5734 5732 5729 5727 5724 5722 5720 5717 5714 5712 5709 5706 5703 5701 5698 5695 5693 5690 5687 5684 5682 5679 5676 5673 5670 5667
5751 5751 5750 5750 5748 5747 5746 5745 5744 5743 5741 5739 5737 5736 5734 5732 5730 5727 5725 5722 5720 5717 5715 5712 5709 5706 5703 5700 5698 5695 5692 5689 5686 5683 5680 5677 5674 5671 5668 5665 5662 5659
5748 5747 5747 5746 5745 5743 5742 5741 5740 5738 5737 5735 5733 5732 5730 5727 5725 5723 5720 5718 5715 5713 5710 5707 5705 5702 5699 5695 5692 5689 5686 5683 5679 5676 5672 5669 5666 5663 5660 5657 5654 5651
5744 5744 5743 5742 5741 5739 5738 5737 5736 5734 5733 5731 5729 5727 5725 5723 5721 5718 5716 5713 5711 5708 5706 5703 5700 5697 5694 5690 5687 5683 5680 5676 5672 5669 5665 5662 5658 5655 5652 5649 5645 5642
5740 5740 5739 5738 5737 5736 5735 5733 5732 5730 5729 5727 5725 5723 5721 5719 5716 5714 5711 5709 5706 5704 5701 5698 5695 5692 5689 5686 5682 5678 5674 5670 5666 5662 5659 5655 5652 5648 5644 5641 5637 5633
5737 5736 5735 5734 5733 5732 5731 5729 5728 5726 5725 5723 5721 5719 5717 5715 5712 5710 5707 5704 5702 5699 5696 5693 5690 5687 5684 5681 5677 5673 5669 5665 5661 5657 5653 5649 5645 5641 5637 5633 5629 5625
5733 5733 5732 5731 5729 5728 5727 5726 5724 5723 5721 5719 5717 5715 5713 5711 5708 5706 5703 5700 5698 5695 5692 5689 5685 5682 5679 5676 5672 5669 5664 5660 5656 5652 5648 5643 5639 5635 5630 5625 5621 5616
5730 5729 5728 5727 5726 5725 5723 5722 5720 5719 5717 5715 5713 5711 5709 5706 5704 5702 5699 5696 5693 5690 5687 5684 5681 5677 5674 5671 5667 5664 5660 5655 5651 5647 5642 5638 5633 5628 5624 5619 5614 5608
5727 5726 5725 5724 5722 5721 5720 5718 5717 5715 5713 5711 5709 5707 5705 5702 5700 5698 5695 5692 5689 5686 5683 5679 5676 5673 5669 5666 5663 5659 5655 5650 5646 5641 5637 5632 5627 5623 5618 5613 5607 5601
5723 5723 5722 5721 5719 5718 5716 5715 5713 5711 5709 5707 5705 5703 5701 5699 5696 5694 5691 5688 5685 5682 5679 5675 5672 5668 5665 5661 5658 5654 5649 5645 5641 5636 5631 5626 5622 5617 5611 5606 5600 5594